Time,TemperatureF,DewpointF,PressureIn,WindDirection,WindDirectionDegrees,WindSpeedMPH,WindSpeedGustMPH,Humidity,HourlyPrecipIn,Conditions,Clouds,dailyrainin,SoftwareType,DateUTC
2013-10-12 00:02:00,43.0,34.6,30.01,SE,135,0.0,0.0,72,0.00,,,0.00,LWC V1.12 B30,2013-10-12 07:02:00,
2013-10-12 00:07:00,42.8,34.4,30.00,SE,135,0.0,0.0,72,0.00,,,0.00,LWC V1.12 B30,2013-10-12 07:07:00,
2013-10-12 00:12:00,43.0,34.6,30.01,SE,135,0.0,0.0,72,0.00,,,0.00,LWC V1.12 B30,2013-10-12 07:12:00,
2013-10-12 00:17:00,42.6,34.3,30.01,SSE,157,0.0,1.3,72,0.00,,,0.00,LWC V1.12 B30,2013-10-12 07:17:00,
2013-10-12 00:22:00,42.6,34.3,30.00,South,180,0.0,2.0,72,0.00,,,0.00,LWC V1.12 B30,2013-10-12 07:22:00,
2013-10-12 00:27:00,42.8,34.8,30.01,SSE,157,0.0,0.0,73,0.00,,,0.00,LWC V1.12 B30,2013-10-12 07:27:00,
2013-10-12 00:32:00,42.8,34.8,30.00,SE,135,0.0,0.0,73,0.00,,,0.00,LWC V1.12 B30,2013-10-12 07:32:00,
2013-10-12 00:37:00,42.8,34.8,30.01,SE,135,0.0,0.0,73,0.00,,,0.00,LWC V1.12 B30,2013-10-12 07:37:00,
2013-10-12 00:42:00,43.0,34.9,30.01,SE,135,0.0,0.0,73,0.00,,,0.00,LWC V1.12 B30,2013-10-12 07:42:00,
2013-10-12 00:47:00,43.0,34.9,30.01,SE,135,0.0,0.0,73,0.00,,,0.00,LWC V1.12 B30,2013-10-12 07:47:00,
2013-10-12 00:52:00,43.0,34.9,30.01,SE,135,0.0,0.0,73,0.00,,,0.00,LWC V1.12 B30,2013-10-12 07:52:00,
2013-10-12 00:57:00,43.0,34.9,30.01,SW,225,0.0,0.0,73,0.00,,,0.00,LWC V1.12 B30,2013-10-12 07:57:00,
2013-10-12 01:02:00,43.0,34.9,30.01,SW,225,0.0,0.0,73,0.00,,,0.00,LWC V1.12 B30,2013-10-12 08:02:00,
2013-10-12 01:07:00,42.8,35.1,30.01,North,0,0.9,2.0,74,0.00,,,0.00,LWC V1.12 B30,2013-10-12 08:07:00,
2013-10-12 01:12:00,42.6,34.9,30.01,NNW,337,0.0,2.5,74,0.00,,,0.00,LWC V1.12 B30,2013-10-12 08:12:00,
2013-10-12 01:17:00,42.6,34.9,30.01,NNW,337,0.0,0.0,74,0.00,,,0.00,LWC V1.12 B30,2013-10-12 08:17:00,
2013-10-12 01:22:00,42.6,35.2,30.01,North,0,0.0,2.5,75,0.00,,,0.00,LWC V1.12 B30,2013-10-12 08:22:00,
2013-10-12 01:27:00,43.0,35.3,30.00,NNW,337,0.0,1.3,74,0.00,,,0.00,LWC V1.12 B30,2013-10-12 08:27:00,
2013-10-12 01:32:00,43.0,35.6,30.00,NNW,337,0.0,0.0,75,0.00,,,0.00,LWC V1.12 B30,2013-10-12 08:32:00,
2013-10-12 01:37:00,43.0,35.6,30.01,NW,315,0.0,28.4,75,0.00,,,0.00,LWC V1.12 B30,2013-10-12 08:37:00,
2013-10-12 01:42:00,43.0,35.6,30.01,SSE,157,0.0,1.8,75,0.00,,,0.00,LWC V1.12 B30,2013-10-12 08:42:00,
2013-10-12 01:47:00,43.0,35.6,30.01,East,90,0.9,0.9,75,0.00,,,0.00,LWC V1.12 B30,2013-10-12 08:47:00,
2013-10-12 01:52:00,43.0,35.6,30.01,NNW,337,0.0,0.0,75,0.00,,,0.00,LWC V1.12 B30,2013-10-12 08:52:00,
2013-10-12 01:57:00,43.0,35.6,30.01,North,0,0.0,2.2,75,0.00,,,0.00,LWC V1.12 B30,2013-10-12 08:57:00,
2013-10-12 02:02:00,43.2,35.4,30.01,NNW,337,0.0,0.0,74,0.00,,,0.00,LWC V1.12 B30,2013-10-12 09:02:00,
2013-10-12 02:07:00,43.2,35.4,30.01,ESE,112,2.0,2.0,74,0.00,,,0.00,LWC V1.12 B30,2013-10-12 09:07:00,
2013-10-12 02:12:00,43.2,35.4,30.01,WNW,292,0.0,0.0,74,0.00,,,0.00,LWC V1.12 B30,2013-10-12 09:12:00,
2013-10-12 02:17:00,43.2,35.4,30.01,NW,315,1.6,1.6,74,0.00,,,0.00,LWC V1.12 B30,2013-10-12 09:17:00,
2013-10-12 02:22:00,43.2,35.4,30.01,North,0,1.6,1.6,74,0.00,,,0.00,LWC V1.12 B30,2013-10-12 09:22:00,
2013-10-12 02:27:00,43.2,35.1,30.00,NNW,337,0.0,2.0,73,0.00,,,0.00,LWC V1.12 B30,2013-10-12 09:27:00,
2013-10-12 02:32:00,43.2,35.1,30.01,NNW,337,0.0,1.6,74,0.00,,,0.00,LWC V1.12 B30,2013-10-12 09:32:00,
2013-10-12 02:37:00,43.0,35.3,30.01,NNW,337,0.0,4.0,74,0.00,,,0.00,LWC V1.12 B30,2013-10-12 09:37:00,
2013-10-12 02:42:00,43.0,35.3,30.00,NNW,337,0.0,0.0,74,0.00,,,0.00,LWC V1.12 B30,2013-10-12 09:42:00,
2013-10-12 02:47:00,43.0,35.3,30.00,NW,315,0.0,0.0,74,0.00,,,0.00,LWC V1.12 B30,2013-10-12 09:47:00,
2013-10-12 02:52:00,42.8,35.1,30.00,NNW,337,0.0,0.0,74,0.00,,,0.00,LWC V1.12 B30,2013-10-12 09:52:00,
2013-10-12 02:57:00,42.6,34.9,30.00,NNW,337,0.0,0.0,74,0.00,,,0.00,LWC V1.12 B30,2013-10-12 09:57:00,
2013-10-12 03:02:00,42.6,34.9,30.00,NNW,337,0.0,0.0,74,0.00,,,0.00,LWC V1.12 B30,2013-10-12 10:02:00,
2013-10-12 03:07:00,42.6,34.9,29.99,NNW,337,0.0,3.1,74,0.00,,,0.00,LWC V1.12 B30,2013-10-12 10:07:00,
2013-10-12 03:12:00,42.6,34.9,29.99,NW,315,0.0,0.0,74,0.00,,,0.00,LWC V1.12 B30,2013-10-12 10:12:00,
2013-10-12 03:17:00,42.6,34.9,29.99,WNW,292,1.3,71.3,74,0.00,,,0.00,LWC V1.12 B30,2013-10-12 10:17:00,
2013-10-12 03:22:00,42.4,35.1,29.99,North,0,0.0,2.2,75,0.00,,,0.00,LWC V1.12 B30,2013-10-12 10:22:00,
2013-10-12 03:27:00,42.4,35.1,29.99,SSE,157,0.0,0.0,75,0.00,,,0.00,LWC V1.12 B30,2013-10-12 10:27:00,
2013-10-12 03:32:00,42.4,35.1,29.99,NNW,337,1.1,1.1,75,0.00,,,0.00,LWC V1.12 B30,2013-10-12 10:32:00,
2013-10-12 03:37:00,42.4,35.1,29.99,NW,315,0.0,0.0,75,0.00,,,0.00,LWC V1.12 B30,2013-10-12 10:37:00,
2013-10-12 03:42:00,42.4,35.1,29.99,WNW,292,0.0,1.6,75,0.00,,,0.00,LWC V1.12 B30,2013-10-12 10:42:00,
2013-10-12 03:47:00,42.4,35.1,29.99,WNW,292,0.0,0.0,75,0.00,,,0.00,LWC V1.12 B30,2013-10-12 10:47:00,
2013-10-12 03:52:00,42.4,35.1,29.99,North,0,0.0,1.6,75,0.00,,,0.00,LWC V1.12 B30,2013-10-12 10:52:00,
2013-10-12 03:57:00,42.4,35.1,29.99,North,0,2.2,2.5,75,0.00,,,0.00,LWC V1.12 B30,2013-10-12 10:57:00,
2013-10-12 04:02:00,42.4,35.1,29.99,NW,315,0.0,0.0,75,0.00,,,0.00,LWC V1.12 B30,2013-10-12 11:02:00,
2013-10-12 04:07:00,42.4,35.1,29.99,WNW,292,0.0,0.0,75,0.00,,,0.00,LWC V1.12 B30,2013-10-12 11:07:00,
2013-10-12 04:12:00,42.4,35.1,29.99,SW,225,0.0,0.0,75,0.00,,,0.00,LWC V1.12 B30,2013-10-12 11:12:00,
2013-10-12 04:17:00,42.4,35.4,29.98,NW,315,2.0,2.0,76,0.00,,,0.00,LWC V1.12 B30,2013-10-12 11:17:00,
2013-10-12 04:22:00,42.4,35.4,29.99,North,0,0.0,1.1,76,0.00,,,0.00,LWC V1.12 B30,2013-10-12 11:22:00,
2013-10-12 04:27:00,42.4,35.4,29.98,NNW,337,0.0,0.0,76,0.00,,,0.00,LWC V1.12 B30,2013-10-12 11:27:00,
2013-10-12 04:32:00,42.4,35.4,29.98,NNW,337,0.0,0.0,76,0.00,,,0.00,LWC V1.12 B30,2013-10-12 11:32:00,
2013-10-12 04:37:00,42.4,35.4,29.99,WNW,292,0.0,0.0,76,0.00,,,0.00,LWC V1.12 B30,2013-10-12 11:37:00,
2013-10-12 04:42:00,42.4,35.4,29.98,NNW,337,0.0,0.0,76,0.00,,,0.00,LWC V1.12 B30,2013-10-12 11:42:00,
2013-10-12 04:47:00,42.4,35.4,29.98,NNW,337,0.0,1.6,76,0.00,,,0.00,LWC V1.12 B30,2013-10-12 11:47:00,
2013-10-12 04:52:00,42.4,35.4,29.98,North,0,0.0,2.5,76,0.00,,,0.00,LWC V1.12 B30,2013-10-12 11:52:00,
2013-10-12 04:57:00,42.4,35.4,29.98,North,0,0.0,2.0,76,0.00,,,0.00,LWC V1.12 B30,2013-10-12 11:57:00,
2013-10-12 05:02:00,42.4,35.4,29.98,NNW,337,0.0,1.3,76,0.00,,,0.00,LWC V1.12 B30,2013-10-12 12:02:00,
2013-10-12 05:07:00,42.4,35.4,29.98,North,0,0.0,1.3,76,0.00,,,0.00,LWC V1.12 B30,2013-10-12 12:07:00,
2013-10-12 05:12:00,42.4,35.4,29.97,North,0,0.0,1.6,76,0.00,,,0.00,LWC V1.12 B30,2013-10-12 12:12:00,
2013-10-12 05:17:00,42.3,35.2,29.98,NNW,337,3.1,3.1,76,0.00,,,0.00,LWC V1.12 B30,2013-10-12 12:17:00,
2013-10-12 05:22:00,42.3,35.2,29.98,NNW,337,0.0,1.3,76,0.00,,,0.00,LWC V1.12 B30,2013-10-12 12:22:00,
2013-10-12 05:27:00,42.1,35.3,29.98,NNE,22,0.0,0.0,77,0.00,,,0.00,LWC V1.12 B30,2013-10-12 12:27:00,
2013-10-12 05:32:00,42.1,35.3,29.98,North,0,0.0,0.0,77,0.00,,,0.00,LWC V1.12 B30,2013-10-12 12:32:00,
2013-10-12 05:37:00,42.1,35.3,29.98,North,0,0.0,0.0,77,0.00,,,0.00,LWC V1.12 B30,2013-10-12 12:37:00,
2013-10-12 05:43:00,41.9,35.2,29.98,North,0,0.0,0.0,77,0.00,,,0.00,LWC V1.12 B30,2013-10-12 12:43:00,
2013-10-12 05:48:00,41.9,34.8,29.98,North,0,0.0,0.0,76,0.00,,,0.00,LWC V1.12 B30,2013-10-12 12:48:00,
2013-10-12 05:53:00,41.9,34.8,29.98,North,0,0.0,0.0,76,0.00,,,0.00,LWC V1.12 B30,2013-10-12 12:53:00,
2013-10-12 05:58:00,41.7,34.7,29.98,North,0,0.0,0.0,76,0.00,,,0.00,LWC V1.12 B30,2013-10-12 12:58:00,
2013-10-12 06:03:00,41.7,34.7,29.98,North,0,0.0,0.0,76,0.00,,,0.00,LWC V1.12 B30,2013-10-12 13:03:00,
2013-10-12 06:08:00,41.7,34.7,29.98,North,0,0.0,0.0,76,0.00,,,0.00,LWC V1.12 B30,2013-10-12 13:08:00,
2013-10-12 06:13:00,41.7,34.7,29.99,NNE,22,0.0,0.0,76,0.00,,,0.00,LWC V1.12 B30,2013-10-12 13:13:00,
2013-10-12 06:18:00,41.5,34.8,29.98,NNE,22,0.0,0.0,77,0.00,,,0.00,LWC V1.12 B30,2013-10-12 13:18:00,
2013-10-12 06:23:00,41.5,34.8,29.98,NNE,22,0.0,0.0,77,0.00,,,0.00,LWC V1.12 B30,2013-10-12 13:23:00,
2013-10-12 06:28:00,41.5,34.8,29.97,NNE,22,0.0,0.0,77,0.00,,,0.00,LWC V1.12 B30,2013-10-12 13:28:00,
2013-10-12 06:33:00,41.5,34.8,29.98,NNE,22,0.0,0.0,77,0.00,,,0.00,LWC V1.12 B30,2013-10-12 13:33:00,
2013-10-12 06:38:00,41.4,34.6,29.98,NNE,22,0.0,0.0,77,0.00,,,0.00,LWC V1.12 B30,2013-10-12 13:38:00,
2013-10-12 06:43:00,41.4,34.6,29.98,NNE,22,0.0,0.0,77,0.00,,,0.00,LWC V1.12 B30,2013-10-12 13:43:00,
2013-10-12 06:48:00,41.4,34.6,29.98,NNE,22,0.0,0.0,77,0.00,,,0.00,LWC V1.12 B30,2013-10-12 13:48:00,
2013-10-12 06:53:00,41.4,34.6,29.98,NNE,22,0.0,0.0,77,0.00,,,0.00,LWC V1.12 B30,2013-10-12 13:53:00,
2013-10-12 06:58:00,41.4,34.6,29.98,NNE,22,0.0,0.0,77,0.00,,,0.00,LWC V1.12 B30,2013-10-12 13:58:00,
2013-10-12 07:03:00,41.4,34.6,29.98,NNE,22,0.0,0.0,77,0.00,,,0.00,LWC V1.12 B30,2013-10-12 14:03:00,
2013-10-12 07:08:00,41.4,34.6,29.98,NNE,22,0.0,0.0,77,0.00,,,0.00,LWC V1.12 B30,2013-10-12 14:08:00,
2013-10-12 07:13:00,41.4,34.6,29.98,NNE,22,0.0,14.1,77,0.00,,,0.00,LWC V1.12 B30,2013-10-12 14:13:00,
2013-10-12 07:18:00,41.4,34.6,29.99,NNE,22,0.0,0.0,77,0.00,,,0.00,LWC V1.12 B30,2013-10-12 14:18:00,
2013-10-12 07:23:00,41.4,34.6,29.99,NNE,22,0.0,1.3,77,0.00,,,0.00,LWC V1.12 B30,2013-10-12 14:23:00,
2013-10-12 07:28:00,41.5,34.8,30.00,NNE,22,0.0,0.0,77,0.00,,,0.00,LWC V1.12 B30,2013-10-12 14:28:00,
2013-10-12 07:33:00,41.5,35.1,30.00,North,0,0.0,0.0,78,0.00,,,0.00,LWC V1.12 B30,2013-10-12 14:33:00,
2013-10-12 07:38:00,41.5,35.1,30.01,NNW,337,0.0,0.0,78,0.00,,,0.00,LWC V1.12 B30,2013-10-12 14:38:00,
2013-10-12 07:43:00,41.5,34.8,30.01,NNW,337,0.0,0.0,77,0.00,,,0.00,LWC V1.12 B30,2013-10-12 14:43:00,
2013-10-12 07:49:00,41.7,34.8,30.01,NNW,337,0.0,0.0,77,0.00,,,0.00,LWC V1.12 B30,2013-10-12 14:49:00,
2013-10-12 07:54:00,41.9,35.2,30.01,NNW,337,0.0,0.0,77,0.00,,,0.00,LWC V1.12 B30,2013-10-12 14:54:00,
2013-10-12 07:59:00,42.1,35.3,30.01,NNW,337,0.0,0.0,77,0.00,,,0.00,LWC V1.12 B30,2013-10-12 14:59:00,
2013-10-12 08:04:00,42.1,35.3,30.01,NNW,337,0.0,0.0,77,0.00,,,0.00,LWC V1.12 B30,2013-10-12 15:04:00,
2013-10-12 08:09:00,42.1,35.3,30.02,NNW,337,0.0,0.0,78,0.00,,,0.00,LWC V1.12 B30,2013-10-12 15:09:00,
2013-10-12 08:14:00,42.4,36.0,30.02,NNW,337,0.0,0.0,78,0.00,,,0.00,LWC V1.12 B30,2013-10-12 15:14:00,
2013-10-12 08:20:00,42.6,36.2,30.02,North,0,0.0,0.0,78,0.00,,,0.00,LWC V1.12 B30,2013-10-12 15:20:00,
2013-10-12 08:25:00,43.0,36.6,30.01,NNW,337,0.0,0.0,78,0.00,,,0.00,LWC V1.12 B30,2013-10-12 15:25:00,
2013-10-12 08:30:00,43.0,36.6,30.02,NNW,337,0.0,0.0,78,0.00,,,0.00,LWC V1.12 B30,2013-10-12 15:30:00,
2013-10-12 08:35:00,43.3,36.6,30.02,North,0,0.0,2.0,77,0.00,,,0.00,LWC V1.12 B30,2013-10-12 15:35:00,
2013-10-12 08:40:00,43.5,36.8,30.02,North,0,0.0,0.0,77,0.00,,,0.00,LWC V1.12 B30,2013-10-12 15:40:00,
2013-10-12 08:45:00,43.7,36.9,30.03,North,0,0.0,0.7,77,0.00,,,0.00,LWC V1.12 B30,2013-10-12 15:45:00,
2013-10-12 08:50:00,43.9,37.1,30.03,WNW,292,0.0,0.0,77,0.00,,,0.00,LWC V1.12 B30,2013-10-12 15:50:00,
2013-10-12 08:55:00,44.1,37.0,30.02,North,0,0.0,0.0,76,0.00,,,0.00,LWC V1.12 B30,2013-10-12 15:55:00,
2013-10-12 09:00:00,44.2,37.1,30.02,NNW,337,0.0,0.0,76,0.00,,,0.00,LWC V1.12 B30,2013-10-12 16:00:00,
2013-10-12 09:05:00,44.4,37.3,30.02,NNW,337,0.0,0.0,76,0.00,,,0.00,LWC V1.12 B30,2013-10-12 16:05:00,
2013-10-12 09:10:00,44.4,37.3,30.02,NNW,337,0.0,0.0,76,0.00,,,0.00,LWC V1.12 B30,2013-10-12 16:10:00,
2013-10-12 09:15:00,44.6,37.5,30.02,NNW,337,0.0,0.0,76,0.00,,,0.00,LWC V1.12 B30,2013-10-12 16:15:00,
2013-10-12 09:20:00,44.8,37.7,30.02,WNW,292,0.0,0.0,76,0.00,,,0.00,LWC V1.12 B30,2013-10-12 16:20:00,
2013-10-12 09:25:00,45.1,38.0,30.03,NNW,337,0.0,0.0,76,0.00,,,0.00,LWC V1.12 B30,2013-10-12 16:25:00,
2013-10-12 09:30:00,45.1,38.0,30.03,NNW,337,1.3,1.3,76,0.00,,,0.00,LWC V1.12 B30,2013-10-12 16:30:00,
2013-10-12 09:35:00,45.3,37.8,30.03,NNW,337,0.0,0.0,75,0.00,,,0.00,LWC V1.12 B30,2013-10-12 16:35:00,
2013-10-12 09:40:00,45.3,37.8,30.03,WNW,292,0.0,1.8,75,0.00,,,0.00,LWC V1.12 B30,2013-10-12 16:40:00,
2013-10-12 09:45:00,45.3,37.8,30.02,NW,315,1.1,4.0,75,0.00,,,0.00,LWC V1.12 B30,2013-10-12 16:45:00,
2013-10-12 09:50:00,45.7,38.2,30.03,North,0,0.7,4.5,75,0.00,,,0.00,LWC V1.12 B30,2013-10-12 16:50:00,
2013-10-12 09:55:00,45.7,38.2,30.02,NW,315,0.0,1.3,75,0.00,,,0.00,LWC V1.12 B30,2013-10-12 16:55:00,
2013-10-12 10:00:00,45.9,38.0,30.03,WNW,292,1.3,2.2,74,0.00,,,0.00,LWC V1.12 B30,2013-10-12 17:00:00,
2013-10-12 10:05:00,46.0,38.0,30.02,NW,315,0.0,2.0,74,0.00,,,0.00,LWC V1.12 B30,2013-10-12 17:05:00,
2013-10-12 10:10:00,46.0,37.9,30.03,WNW,292,0.0,2.2,73,0.00,,,0.00,LWC V1.12 B30,2013-10-12 17:10:00,
2013-10-12 10:15:00,46.0,37.9,30.03,WNW,292,0.0,0.0,73,0.00,,,0.00,LWC V1.12 B30,2013-10-12 17:15:00,
2013-10-12 10:20:00,46.2,38.1,30.02,NNW,337,0.0,2.0,73,0.00,,,0.00,LWC V1.12 B30,2013-10-12 17:20:00,
2013-10-12 10:25:00,46.2,37.7,30.03,NNW,337,0.0,0.0,72,0.00,,,0.00,LWC V1.12 B30,2013-10-12 17:25:00,
2013-10-12 10:30:00,46.6,38.1,30.03,NW,315,1.8,3.6,72,0.00,,,0.00,LWC V1.12 B30,2013-10-12 17:30:00,
2013-10-12 10:35:00,46.6,38.1,30.03,NW,315,0.0,0.0,72,0.00,,,0.00,LWC V1.12 B30,2013-10-12 17:35:00,
2013-10-12 10:40:00,46.8,38.0,30.03,NW,315,1.3,2.0,71,0.00,,,0.00,LWC V1.12 B30,2013-10-12 17:40:00,
2013-10-12 10:45:00,46.9,37.7,30.03,NNE,22,4.9,4.9,70,0.00,,,0.00,LWC V1.12 B30,2013-10-12 17:45:00,
2013-10-12 10:50:00,47.1,38.2,30.03,NW,315,0.0,3.1,71,0.00,,,0.00,LWC V1.12 B30,2013-10-12 17:50:00,
2013-10-12 10:55:00,47.3,38.0,30.03,North,0,2.2,2.2,70,0.00,,,0.00,LWC V1.12 B30,2013-10-12 17:55:00,
2013-10-12 11:00:00,47.5,38.2,30.03,NW,315,1.6,2.9,70,0.00,,,0.00,LWC V1.12 B30,2013-10-12 18:00:00,
2013-10-12 11:05:00,47.8,38.1,30.03,North,0,1.1,4.9,69,0.00,,,0.00,LWC V1.12 B30,2013-10-12 18:05:00,
2013-10-12 11:10:00,48.0,38.3,30.03,NNW,337,0.0,0.0,69,0.00,,,0.00,LWC V1.12 B30,2013-10-12 18:10:00,
2013-10-12 11:15:00,48.4,38.6,30.03,North,0,0.0,3.8,69,0.00,,,0.00,LWC V1.12 B30,2013-10-12 18:15:00,
2013-10-12 11:20:00,48.7,39.0,30.03,West,270,0.0,3.6,69,0.00,,,0.00,LWC V1.12 B30,2013-10-12 18:20:00,
2013-10-12 11:25:00,49.1,39.0,30.03,NW,315,0.0,1.1,68,0.00,,,0.00,LWC V1.12 B30,2013-10-12 18:25:00,
2013-10-12 11:30:00,49.6,39.5,30.02,SSW,202,0.0,0.0,68,0.00,,,0.00,LWC V1.12 B30,2013-10-12 18:30:00,
2013-10-12 11:35:00,50.5,39.6,30.02,NNW,337,2.5,4.9,66,0.00,,,0.00,LWC V1.12 B30,2013-10-12 18:35:00,
2013-10-12 11:40:00,50.5,39.2,30.03,North,0,2.2,2.2,65,0.00,,,0.00,LWC V1.12 B30,2013-10-12 18:40:00,
2013-10-12 11:45:00,51.1,38.9,30.03,NNE,22,2.2,5.8,63,0.00,,,0.00,LWC V1.12 B30,2013-10-12 18:45:00,
2013-10-12 11:50:00,50.9,38.7,30.02,NNW,337,3.1,5.1,63,0.00,,,0.00,LWC V1.12 B30,2013-10-12 18:50:00,
2013-10-12 11:55:00,50.7,38.1,30.03,North,0,0.0,2.9,62,0.00,,,0.00,LWC V1.12 B30,2013-10-12 18:55:00,
2013-10-12 12:00:00,51.1,38.5,30.02,WSW,247,2.5,2.7,62,0.00,,,0.00,LWC V1.12 B30,2013-10-12 19:00:00,
2013-10-12 12:05:00,51.3,38.6,30.02,WNW,292,0.0,2.0,62,0.00,,,0.00,LWC V1.12 B30,2013-10-12 19:05:00,
2013-10-12 12:10:00,51.3,38.2,30.03,NW,315,1.6,3.8,61,0.00,,,0.00,LWC V1.12 B30,2013-10-12 19:10:00,
2013-10-12 12:16:00,51.4,38.8,30.02,North,0,0.0,4.0,62,0.00,,,0.00,LWC V1.12 B30,2013-10-12 19:16:00,
2013-10-12 12:21:00,51.4,38.8,30.02,NNE,22,0.0,5.6,62,0.00,,,0.00,LWC V1.12 B30,2013-10-12 19:21:00,
2013-10-12 12:26:00,51.3,38.6,30.02,North,0,0.0,5.8,62,0.00,,,0.00,LWC V1.12 B30,2013-10-12 19:26:00,
2013-10-12 12:31:00,51.4,38.8,30.02,North,0,6.3,6.3,62,0.00,,,0.00,LWC V1.12 B30,2013-10-12 19:31:00,
2013-10-12 12:36:00,51.6,38.5,30.01,North,0,1.3,4.9,61,0.00,,,0.00,LWC V1.12 B30,2013-10-12 19:36:00,
2013-10-12 12:41:00,51.8,39.1,30.01,NW,315,2.5,5.4,62,0.00,,,0.00,LWC V1.12 B30,2013-10-12 19:41:00,
2013-10-12 12:47:00,52.5,39.0,30.01,NNW,337,1.1,3.6,60,0.00,,,0.00,LWC V1.12 B30,2013-10-12 19:47:00,
2013-10-12 12:52:00,52.5,38.6,30.00,West,270,0.0,0.0,59,0.00,,,0.00,LWC V1.12 B30,2013-10-12 19:52:00,
2013-10-12 12:57:00,52.9,38.8,30.00,NW,315,2.7,8.1,58,0.00,,,0.00,LWC V1.12 B30,2013-10-12 19:57:00,
2013-10-12 13:02:00,53.2,38.8,30.00,WNW,292,2.0,5.1,58,0.00,,,0.00,LWC V1.12 B30,2013-10-12 20:02:00,
2013-10-12 13:07:00,53.4,39.0,30.00,NW,315,2.0,4.2,58,0.00,,,0.00,LWC V1.12 B30,2013-10-12 20:07:00,
2013-10-12 13:12:00,53.8,39.3,30.00,WNW,292,0.9,2.9,58,0.00,,,0.00,LWC V1.12 B30,2013-10-12 20:12:00,
2013-10-12 13:17:00,54.1,40.1,30.00,NW,315,3.1,3.4,59,0.00,,,0.00,LWC V1.12 B30,2013-10-12 20:17:00,
2013-10-12 13:22:00,54.7,40.1,30.00,NW,315,1.8,3.4,58,0.00,,,0.00,LWC V1.12 B30,2013-10-12 20:22:00,
2013-10-12 13:27:00,55.2,39.7,30.00,North,0,9.6,9.6,56,0.00,,,0.00,LWC V1.12 B30,2013-10-12 20:27:00,
2013-10-12 13:32:00,55.0,39.5,30.01,NNW,337,0.9,3.8,56,0.00,,,0.00,LWC V1.12 B30,2013-10-12 20:32:00,
2013-10-12 13:37:00,54.7,38.7,30.00,NW,315,1.6,2.9,55,0.00,,,0.00,LWC V1.12 B30,2013-10-12 20:37:00,
2013-10-12 13:42:00,54.5,38.6,30.00,NW,315,2.5,9.6,55,0.00,,,0.00,LWC V1.12 B30,2013-10-12 20:42:00,
2013-10-12 13:47:00,54.3,38.4,30.00,North,0,4.0,4.0,55,0.00,,,0.00,LWC V1.12 B30,2013-10-12 20:47:00,
2013-10-12 13:52:00,54.3,38.4,30.00,WNW,292,0.0,4.7,55,0.00,,,0.00,LWC V1.12 B30,2013-10-12 20:52:00,
2013-10-12 13:57:00,54.7,38.6,30.00,West,270,0.0,4.7,55,0.00,,,0.00,LWC V1.12 B30,2013-10-12 20:57:00,
2013-10-12 14:02:00,55.0,39.1,30.00,NNW,337,2.5,3.8,55,0.00,,,0.00,LWC V1.12 B30,2013-10-12 21:02:00,
2013-10-12 14:07:00,55.8,38.8,30.00,North,0,3.4,11.0,53,0.00,,,0.00,LWC V1.12 B30,2013-10-12 21:07:00,
2013-10-12 14:12:00,55.8,38.8,30.00,NW,315,2.0,5.8,53,0.00,,,0.00,LWC V1.12 B30,2013-10-12 21:12:00,
2013-10-12 14:17:00,55.9,38.5,30.01,NNW,337,1.6,2.0,52,0.00,,,0.00,LWC V1.12 B30,2013-10-12 21:17:00,
2013-10-12 14:22:00,55.9,38.0,30.00,North,0,0.9,4.7,51,0.00,,,0.00,LWC V1.12 B30,2013-10-12 21:22:00,
2013-10-12 14:27:00,56.1,38.7,30.00,West,270,7.2,7.2,52,0.00,,,0.00,LWC V1.12 B30,2013-10-12 21:27:00,
2013-10-12 14:32:00,56.3,37.9,30.00,NW,315,2.0,4.9,50,0.00,,,0.00,LWC V1.12 B30,2013-10-12 21:32:00,
2013-10-12 14:37:00,56.5,38.6,30.00,NNW,337,4.0,4.5,51,0.00,,,0.00,LWC V1.12 B30,2013-10-12 21:37:00,
2013-10-12 14:42:00,56.5,38.1,30.00,NW,315,3.4,6.0,50,0.00,,,0.00,LWC V1.12 B30,2013-10-12 21:42:00,
2013-10-12 14:47:00,56.5,38.1,30.01,WNW,292,0.9,2.5,50,0.00,,,0.00,LWC V1.12 B30,2013-10-12 21:47:00,
2013-10-12 14:52:00,56.8,38.5,30.01,NW,315,3.6,6.5,50,0.00,,,0.00,LWC V1.12 B30,2013-10-12 21:52:00,
2013-10-12 14:57:00,56.8,37.9,30.01,WNW,292,0.0,4.7,49,0.00,,,0.00,LWC V1.12 B30,2013-10-12 21:57:00,
2013-10-12 15:02:00,56.5,37.5,30.01,North,0,3.4,3.8,49,0.00,,,0.00,LWC V1.12 B30,2013-10-12 22:02:00,
2013-10-12 15:07:00,56.5,38.1,30.01,West,270,2.0,2.5,50,0.00,,,0.00,LWC V1.12 B30,2013-10-12 22:07:00,
2013-10-12 15:12:00,56.3,37.4,30.01,NNW,337,2.7,3.6,49,0.00,,,0.00,LWC V1.12 B30,2013-10-12 22:12:00,
2013-10-12 15:17:00,56.1,37.2,30.01,NW,315,0.0,0.0,49,0.00,,,0.00,LWC V1.12 B30,2013-10-12 22:17:00,
2013-10-12 15:22:00,55.6,37.2,30.01,North,0,4.9,4.9,50,0.00,,,0.00,LWC V1.12 B30,2013-10-12 22:22:00,
2013-10-12 15:27:00,55.4,37.0,30.01,WNW,292,1.6,4.9,50,0.00,,,0.00,LWC V1.12 B30,2013-10-12 22:27:00,
2013-10-12 15:32:00,55.8,37.4,30.01,NW,315,2.0,4.7,50,0.00,,,0.00,LWC V1.12 B30,2013-10-12 22:32:00,
2013-10-12 15:37:00,55.9,37.0,30.01,NW,315,3.6,6.7,49,0.00,,,0.00,LWC V1.12 B30,2013-10-12 22:37:00,
2013-10-12 15:42:00,55.6,36.6,30.02,NW,315,2.9,5.1,49,0.00,,,0.00,LWC V1.12 B30,2013-10-12 22:42:00,
2013-10-12 15:47:00,55.6,37.2,30.02,NW,315,2.9,2.9,50,0.00,,,0.00,LWC V1.12 B30,2013-10-12 22:47:00,
2013-10-12 15:52:00,55.2,36.9,30.02,West,270,0.0,2.9,50,0.00,,,0.00,LWC V1.12 B30,2013-10-12 22:52:00,
2013-10-12 15:57:00,55.2,36.9,30.02,NW,315,3.1,4.5,50,0.00,,,0.00,LWC V1.12 B30,2013-10-12 22:57:00,
2013-10-12 16:02:00,55.0,36.7,30.02,WNW,292,1.6,2.9,50,0.00,,,0.00,LWC V1.12 B30,2013-10-12 23:02:00,
2013-10-12 16:07:00,54.7,36.9,30.02,NNW,337,1.6,2.9,51,0.00,,,0.00,LWC V1.12 B30,2013-10-12 23:07:00,
2013-10-12 16:12:00,54.5,36.7,30.02,NW,315,0.7,3.8,51,0.00,,,0.00,LWC V1.12 B30,2013-10-12 23:12:00,
2013-10-12 16:17:00,54.3,36.5,30.02,North,0,2.9,2.9,51,0.00,,,0.00,LWC V1.12 B30,2013-10-12 23:17:00,
2013-10-12 16:22:00,54.1,36.4,30.02,West,270,2.5,4.5,51,0.00,,,0.00,LWC V1.12 B30,2013-10-12 23:22:00,
2013-10-12 16:27:00,54.1,36.4,30.02,NW,315,3.6,3.6,51,0.00,,,0.00,LWC V1.12 B30,2013-10-12 23:27:00,
2013-10-12 16:32:00,54.1,36.2,30.02,NNW,337,6.3,6.3,51,0.00,,,0.00,LWC V1.12 B30,2013-10-12 23:32:00,
2013-10-12 16:37:00,53.8,36.0,30.02,NNW,337,1.8,2.0,51,0.00,,,0.00,LWC V1.12 B30,2013-10-12 23:37:00,
2013-10-12 16:43:00,53.8,36.0,30.02,NNW,337,1.8,2.7,51,0.00,,,0.00,LWC V1.12 B30,2013-10-12 23:43:00,
2013-10-12 16:48:00,53.8,36.5,30.02,NNW,337,4.7,4.7,52,0.00,,,0.00,LWC V1.12 B30,2013-10-12 23:48:00,
2013-10-12 16:53:00,53.8,36.5,30.03,NW,315,3.8,3.8,52,0.00,,,0.00,LWC V1.12 B30,2013-10-12 23:53:00,
2013-10-12 16:58:00,53.8,36.0,30.03,North,0,3.6,4.5,51,0.00,,,0.00,LWC V1.12 B30,2013-10-12 23:58:00,
2013-10-12 17:03:00,53.4,35.7,30.03,West,270,1.3,3.1,51,0.00,,,0.00,LWC V1.12 B30,2013-10-13 00:03:00,
2013-10-12 17:08:00,53.4,35.7,30.03,WNW,292,1.6,2.0,51,0.00,,,0.00,LWC V1.12 B30,2013-10-13 00:08:00,
2013-10-12 17:13:00,53.4,36.2,30.03,NW,315,1.6,3.8,52,0.00,,,0.00,LWC V1.12 B30,2013-10-13 00:13:00,
2013-10-12 17:18:00,53.2,36.0,30.03,NNW,337,1.3,1.6,52,0.00,,,0.00,LWC V1.12 B30,2013-10-13 00:18:00,
2013-10-12 17:23:00,53.2,36.0,30.03,WSW,247,0.0,2.2,52,0.00,,,0.00,LWC V1.12 B30,2013-10-13 00:23:00,
2013-10-12 17:28:00,53.1,36.3,30.03,West,270,0.0,0.7,53,0.00,,,0.00,LWC V1.12 B30,2013-10-13 00:28:00,
2013-10-12 17:33:00,52.9,36.1,30.03,WNW,292,0.0,0.0,53,0.00,,,0.00,LWC V1.12 B30,2013-10-13 00:33:00,
2013-10-12 17:38:00,52.9,36.1,30.03,WNW,292,2.5,2.5,53,0.00,,,0.00,LWC V1.12 B30,2013-10-13 00:38:00,
2013-10-12 17:43:00,52.7,36.0,30.04,NW,315,0.0,0.0,53,0.00,,,0.00,LWC V1.12 B30,2013-10-13 00:43:00,
2013-10-12 17:48:00,52.7,36.0,30.03,West,270,0.0,0.0,53,0.00,,,0.00,LWC V1.12 B30,2013-10-13 00:48:00,
2013-10-12 17:53:00,52.3,36.1,30.04,WSW,247,0.0,1.1,54,0.00,,,0.00,LWC V1.12 B30,2013-10-13 00:53:00,
2013-10-12 17:58:00,52.2,35.9,30.04,West,270,0.0,28.4,54,0.00,,,0.00,LWC V1.12 B30,2013-10-13 00:58:00,
2013-10-12 18:03:00,51.6,35.4,30.04,West,270,0.0,0.0,54,0.00,,,0.00,LWC V1.12 B30,2013-10-13 01:03:00,
2013-10-12 18:08:00,51.6,35.4,30.04,SSE,157,1.1,1.1,54,0.00,,,0.00,LWC V1.12 B30,2013-10-13 01:08:00,
2013-10-12 18:13:00,51.1,35.6,30.04,SSE,157,1.8,2.2,55,0.00,,,0.00,LWC V1.12 B30,2013-10-13 01:13:00,
2013-10-12 18:18:00,50.7,35.1,30.04,SSE,157,0.0,1.3,55,0.00,,,0.00,LWC V1.12 B30,2013-10-13 01:18:00,
2013-10-12 18:23:00,50.4,35.2,30.04,SE,135,0.0,1.3,56,0.00,,,0.00,LWC V1.12 B30,2013-10-13 01:23:00,
2013-10-12 18:28:00,49.8,35.2,30.04,SE,135,0.0,0.0,57,0.00,,,0.00,LWC V1.12 B30,2013-10-13 01:28:00,
2013-10-12 18:33:00,49.5,34.8,30.04,SE,135,0.0,0.0,58,0.00,,,0.00,LWC V1.12 B30,2013-10-13 01:33:00,
2013-10-12 18:38:00,48.7,34.6,30.04,SE,135,2.0,2.0,58,0.00,,,0.00,LWC V1.12 B30,2013-10-13 01:38:00,
2013-10-12 18:43:00,48.4,34.8,30.04,SSE,157,1.8,1.8,59,0.00,,,0.00,LWC V1.12 B30,2013-10-13 01:43:00,
2013-10-12 18:48:00,47.8,34.7,30.05,SE,135,2.0,2.0,60,0.00,,,0.00,LWC V1.12 B30,2013-10-13 01:48:00,
2013-10-12 18:53:00,47.5,34.3,30.05,SE,135,1.6,1.8,60,0.00,,,0.00,LWC V1.12 B30,2013-10-13 01:53:00,
2013-10-12 18:57:00,47.1,34.4,30.05,SE,135,0.0,0.0,61,0.00,,,0.00,LWC V1.12 B30,2013-10-13 01:57:00,
2013-10-12 19:02:00,46.8,34.4,30.05,SE,135,1.6,1.6,62,0.00,,,0.00,LWC V1.12 B30,2013-10-13 02:02:00,
2013-10-12 19:07:00,46.6,34.2,30.05,SE,135,2.2,3.1,62,0.00,,,0.00,LWC V1.12 B30,2013-10-13 02:07:00,
2013-10-12 19:12:00,46.2,34.3,30.05,SE,135,2.7,3.4,63,0.00,,,0.00,LWC V1.12 B30,2013-10-13 02:12:00,
2013-10-12 19:17:00,46.0,34.1,30.05,SE,135,2.5,2.5,63,0.00,,,0.00,LWC V1.12 B30,2013-10-13 02:17:00,
2013-10-12 19:22:00,45.7,34.2,30.05,SE,135,2.2,2.2,64,0.00,,,0.00,LWC V1.12 B30,2013-10-13 02:22:00,
2013-10-12 19:27:00,45.5,34.0,30.05,SE,135,0.0,1.6,64,0.00,,,0.00,LWC V1.12 B30,2013-10-13 02:27:00,
2013-10-12 19:32:00,45.1,34.0,30.06,SE,135,2.9,3.4,65,0.00,,,0.00,LWC V1.12 B30,2013-10-13 02:32:00,
2013-10-12 19:37:00,45.1,34.0,30.06,SE,135,2.2,2.9,65,0.00,,,0.00,LWC V1.12 B30,2013-10-13 02:37:00,
2013-10-12 19:42:00,44.8,33.7,30.06,SE,135,1.3,2.2,65,0.00,,,0.00,LWC V1.12 B30,2013-10-13 02:42:00,
2013-10-12 19:47:00,44.4,33.7,30.07,SE,135,2.0,2.5,66,0.00,,,0.00,LWC V1.12 B30,2013-10-13 02:47:00,
2013-10-12 19:52:00,44.4,33.7,30.07,SE,135,0.0,0.0,66,0.00,,,0.00,LWC V1.12 B30,2013-10-13 02:52:00,
2013-10-12 19:57:00,44.2,33.6,30.07,SE,135,0.0,0.0,66,0.00,,,0.00,LWC V1.12 B30,2013-10-13 02:57:00,
2013-10-12 20:02:00,44.1,33.8,30.07,SE,135,0.0,0.0,67,0.00,,,0.00,LWC V1.12 B30,2013-10-13 03:02:00,
2013-10-12 20:07:00,43.9,33.6,30.07,SE,135,0.0,0.0,67,0.00,,,0.00,LWC V1.12 B30,2013-10-13 03:07:00,
2013-10-12 20:12:00,43.7,33.4,30.07,SE,135,0.0,0.0,67,0.00,,,0.00,LWC V1.12 B30,2013-10-13 03:12:00,
2013-10-12 20:17:00,43.5,33.3,30.07,SE,135,0.0,0.0,67,0.00,,,0.00,LWC V1.12 B30,2013-10-13 03:17:00,
2013-10-12 20:23:00,43.3,33.5,30.07,SE,135,0.0,0.0,68,0.00,,,0.00,LWC V1.12 B30,2013-10-13 03:23:00,
2013-10-12 20:28:00,43.3,33.5,30.07,SE,135,0.0,0.0,68,0.00,,,0.00,LWC V1.12 B30,2013-10-13 03:28:00,
2013-10-12 20:33:00,43.2,33.3,30.07,SE,135,0.0,0.0,68,0.00,,,0.00,LWC V1.12 B30,2013-10-13 03:33:00,
2013-10-12 20:38:00,43.0,33.6,30.07,SE,135,0.0,0.0,69,0.00,,,0.00,LWC V1.12 B30,2013-10-13 03:38:00,
2013-10-12 20:43:00,43.0,33.6,30.07,South,180,0.0,0.0,69,0.00,,,0.00,LWC V1.12 B30,2013-10-13 03:43:00,
2013-10-12 20:48:00,43.0,33.6,30.07,SE,135,0.0,0.0,69,0.00,,,0.00,LWC V1.12 B30,2013-10-13 03:48:00,
2013-10-12 20:53:00,43.0,33.6,30.07,SE,135,0.0,0.0,69,0.00,,,0.00,LWC V1.12 B30,2013-10-13 03:53:00,
2013-10-12 20:58:00,43.0,33.6,30.07,SE,135,0.0,0.0,69,0.00,,,0.00,LWC V1.12 B30,2013-10-13 03:58:00,
2013-10-12 21:01:00,43.0,33.6,30.07,SE,135,0.0,0.0,69,0.00,,,0.00,LWC V1.12 B30,2013-10-13 04:01:00,
2013-10-12 21:02:00,43.0,33.6,30.07,SE,135,0.0,0.0,69,0.00,,,0.00,LWC V1.12 B30,2013-10-13 04:02:00,
2013-10-12 21:04:00,43.0,33.6,30.08,SE,135,0.0,0.0,69,0.00,,,0.00,LWC V1.12 B30,2013-10-13 04:04:00,
2013-10-12 21:05:00,43.0,33.6,30.08,SE,135,0.0,0.0,69,0.00,,,0.00,LWC V1.12 B30,2013-10-13 04:05:00,
2013-10-12 21:06:00,43.0,33.6,30.08,SE,135,0.0,0.0,69,0.00,,,0.00,LWC V1.12 B30,2013-10-13 04:06:00,
2013-10-12 21:11:00,42.6,33.2,30.07,SE,135,0.0,0.0,69,0.00,,,0.00,LWC V1.12 B30,2013-10-13 04:11:00,
2013-10-12 21:16:00,42.6,33.2,30.07,SE,135,0.0,0.0,69,0.00,,,0.00,LWC V1.12 B30,2013-10-13 04:16:00,
2013-10-12 21:21:00,42.4,33.0,30.08,SE,135,0.0,0.0,69,0.00,,,0.00,LWC V1.12 B30,2013-10-13 04:21:00,
2013-10-12 21:26:00,42.1,32.7,30.08,SSE,157,1.6,3.1,69,0.00,,,0.00,LWC V1.12 B30,2013-10-13 04:26:00,
2013-10-12 21:31:00,41.9,32.9,30.08,SE,135,2.9,3.4,70,0.00,,,0.00,LWC V1.12 B30,2013-10-13 04:31:00,
2013-10-12 21:36:00,41.7,32.7,30.07,SE,135,0.0,1.8,70,0.00,,,0.00,LWC V1.12 B30,2013-10-13 04:36:00,
2013-10-12 21:41:00,41.5,32.9,30.08,SE,135,2.2,2.2,71,0.00,,,0.00,LWC V1.12 B30,2013-10-13 04:41:00,
2013-10-12 21:46:00,41.4,32.7,30.08,SE,135,3.1,3.1,71,0.00,,,0.00,LWC V1.12 B30,2013-10-13 04:46:00,
2013-10-12 21:51:00,41.0,32.3,30.08,SE,135,1.8,2.0,71,0.00,,,0.00,LWC V1.12 B30,2013-10-13 04:51:00,
2013-10-12 21:57:00,40.8,32.1,30.08,SE,135,2.5,2.5,71,0.00,,,0.00,LWC V1.12 B30,2013-10-13 04:57:00,
2013-10-12 22:02:00,40.6,32.3,30.08,SE,135,1.8,1.8,72,0.00,,,0.00,LWC V1.12 B30,2013-10-13 05:02:00,
2013-10-12 22:07:00,40.5,32.1,30.08,SE,135,1.3,2.5,72,0.00,,,0.00,LWC V1.12 B30,2013-10-13 05:07:00,
2013-10-12 22:12:00,40.3,31.9,30.08,SE,135,2.9,2.9,72,0.00,,,0.00,LWC V1.12 B30,2013-10-13 05:12:00,
2013-10-12 22:17:00,40.1,31.8,30.08,SE,135,3.1,3.1,72,0.00,,,0.00,LWC V1.12 B30,2013-10-13 05:17:00,
2013-10-12 22:22:00,39.9,31.9,30.09,SE,135,0.0,0.0,73,0.00,,,0.00,LWC V1.12 B30,2013-10-13 05:22:00,
2013-10-12 22:27:00,39.9,31.9,30.09,SE,135,0.0,0.0,73,0.00,,,0.00,LWC V1.12 B30,2013-10-13 05:27:00,
2013-10-12 22:32:00,39.9,31.9,30.09,SE,135,0.0,0.0,73,0.00,,,0.00,LWC V1.12 B30,2013-10-13 05:32:00,
2013-10-12 22:37:00,39.7,31.7,30.10,SE,135,0.0,0.0,73,0.00,,,0.00,LWC V1.12 B30,2013-10-13 05:37:00,
2013-10-12 22:42:00,39.7,32.1,30.10,SE,135,0.0,0.0,74,0.00,,,0.00,LWC V1.12 B30,2013-10-13 05:42:00,
2013-10-12 22:47:00,39.6,31.9,30.09,SE,135,0.0,0.0,74,0.00,,,0.00,LWC V1.12 B30,2013-10-13 05:47:00,
2013-10-12 22:52:00,39.4,31.7,30.09,SE,135,0.0,0.0,74,0.00,,,0.00,LWC V1.12 B30,2013-10-13 05:52:00,
2013-10-12 22:57:00,39.4,31.7,30.09,SE,135,0.0,0.0,74,0.00,,,0.00,LWC V1.12 B30,2013-10-13 05:57:00,
2013-10-12 23:02:00,39.4,31.7,30.09,SE,135,1.1,2.5,74,0.00,,,0.00,LWC V1.12 B30,2013-10-13 06:02:00,
2013-10-12 23:07:00,39.4,31.7,30.09,SE,135,0.0,2.0,74,0.00,,,0.00,LWC V1.12 B30,2013-10-13 06:07:00,
2013-10-12 23:12:00,39.0,31.7,30.10,SE,135,0.0,0.0,75,0.00,,,0.00,LWC V1.12 B30,2013-10-13 06:12:00,
2013-10-12 23:17:00,39.0,31.7,30.10,SE,135,0.0,0.0,75,0.00,,,0.00,LWC V1.12 B30,2013-10-13 06:17:00,
2013-10-12 23:22:00,39.0,31.7,30.09,SE,135,0.0,2.0,75,0.00,,,0.00,LWC V1.12 B30,2013-10-13 06:22:00,
2013-10-12 23:27:00,39.0,31.7,30.10,SE,135,0.0,0.0,75,0.00,,,0.00,LWC V1.12 B30,2013-10-13 06:27:00,
2013-10-12 23:32:00,38.8,31.6,30.10,SE,135,0.0,0.0,75,0.00,,,0.00,LWC V1.12 B30,2013-10-13 06:32:00,
2013-10-12 23:37:00,38.8,31.9,30.10,SE,135,0.0,0.0,76,0.00,,,0.00,LWC V1.12 B30,2013-10-13 06:37:00,
2013-10-12 23:42:00,38.8,31.4,30.10,SE,135,0.0,0.0,75,0.00,,,0.00,LWC V1.12 B30,2013-10-13 06:42:00,
2013-10-12 23:47:00,38.5,31.2,30.10,SE,135,0.0,0.0,75,0.00,,,0.00,LWC V1.12 B30,2013-10-13 06:47:00,
2013-10-12 23:52:00,38.5,31.2,30.10,SE,135,0.0,0.0,75,0.00,,,0.00,LWC V1.12 B30,2013-10-13 06:52:00,
2013-10-12 23:57:00,38.5,31.2,30.09,SE,135,0.0,0.0,75,0.00,,,0.00,LWC V1.12 B30,2013-10-13 06:57:00,